This demonstration page uses our WeatherBlox Daily Observations layout. Learn more.

Left ArrowRight Arrow

44.8408, -93.29828

Hourly Observations for August 8, 2019

Temp ( °F °C ) Dew Point ( °F °C ) Humidity (%) Winds ( mph kmh ) Pressure ( in mb ) Visibility ( mi km ) Precip ( " mm )
12:53 am 00:53 Clear 68 20 54 12.2 61 61 NNW 9 15 29.87 1012 10 16 0.00 0.00
1:53 am 01:53 Clear 66 18.9 54 12.2 65 65 NW 10 17 29.88 1012 10 16 0.00 0.00
2:53 am 02:53 Clear 64 17.8 54 12.2 70 70 NNW 9 15 29.89 1012 10 16 0.00 0.00
3:53 am 03:53 Clear 62 16.7 53 11.7 73 73 NW 7 11 29.88 1012 10 16 0.00 0.00
4:53 am 04:53 Clear 60 15.6 53 11.7 78 78 NW 7 11 29.89 1012 10 16 0.00 0.00
5:53 am 05:53 Clear 60 15.6 52 11.1 75 75 NNW 8 13 29.90 1012 10 16 0.00 0.00
6:53 am 06:53 Sunny 60 15.6 52 11.1 75 75 NW 5 7 29.92 1013 10 16 0.00 0.00
7:53 am 07:53 Sunny 64 17.8 51 10.6 63 63 NW 7 11 29.92 1013 10 16 0.00 0.00
8:53 am 08:53 Sunny 68 20 51 10.6 55 55 WNW 9 15 29.93 1014 10 16 0.00 0.00
9:53 am 09:53 Sunny 71 21.7 49 9.4 46 46 NW 9 15 29.94 1014 10 16 0.00 0.00
11:53 am 11:53 Sunny 75 23.9 47 8.3 37 37 WNW 14 22 29.93 1014 10 16 0.00 0.00
12:53 pm 12:53 Sunny 77 25 49 9.4 37 37 NNW 9 15 29.93 1014 10 16 0.00 0.00
1:53 pm 13:53 Mostly Sunny 77 25 46 7.8 33 33 NW 14 22 29.93 1013 10 16 0.00 0.00
2:53 pm 14:53 Mostly Sunny 79 26.1 47 8.3 32 32 W 9 15 29.92 1013 10 16 0.00 0.00
3:53 pm 15:53 Partly Cloudy 79 26.1 48 8.9 34 34 NW 15 24 29.91 1013 10 16 0.00 0.00
4:53 pm 16:53 Partly Cloudy 79 26.1 48 8.9 34 34 WNW 12 19 29.91 1013 10 16 0.00 0.00
5:34 pm 17:34 Partly Cloudy 78 25.6 47 8.3 33 33 W 17 28 29.87 1012 10 16 0.00 0.00
5:53 pm 17:53 Mostly Sunny 79 26.1 48 8.9 34 34 WNW 14 22 29.89 1012 10 16 0.00 0.00
6:53 pm 18:53 Mostly Sunny 76 24.4 48 8.9 37 37 WNW 10 17 29.90 1013 10 16 0.00 0.00
7:53 pm 19:53 Mostly Sunny 74 23.3 48 8.9 40 40 NW 13 20 29.91 1013 10 16 0.00 0.00
8:53 pm 20:53 Clear 71 21.7 49 9.4 46 46 NNW 7 11 29.92 1013 10 16 0.00 0.00
9:53 pm 21:53 Clear 68 20 49 9.4 51 51 NNW 7 11 29.94 1014 10 16 0.00 0.00
10:53 pm 22:53 Clear 66 18.9 49 9.4 54 54 NNW 3 6 29.95 1014 10 16 0.00 0.00
11:53 pm 23:53 Clear 65 18.3 51 10.6 61 61 NW 3 6 29.96 1015 10 16 0.00 0.00

Powered by AerisWeather